Location: Cheyres
(46.8153°N, 6.7877°E)
Time: 12:14:31
(UTC+00:00)

ALOS 2 - Pass Details

Date: 11 May 2021
Orbit: 630 x 632 km, 97.9° (Epoch: 18 June)

Event Time Altitude Azimuth Distance (km) Brightness Sun altitude
Exits shadow 22:41:28 61° 80° (E) 721 2.8 -24.2°
Maximum altitude 22:41:33 61° 73° (ENE) 720 2.8 -24.2°
Drops below altitude 10° 22:45:55 10° 353° (N) 2,025 6.3 -24.3°
Sets 22:48:08 0° 350° (N) 2,938 7.5 -24.4°
